Date String (YYYY-MM-DD hh:mm:ss) UTC,Instrument flags,absolute air pressure of the measurement (hPa),sample flow rate (lpm),inlet stack bypass flow (lpm),air temperature of the measurement (°C),ambient temperature measured by the external sensor (°C),aerosol sample conditioner tube jacket temperature (°C),OPC LED temperature (°C),internal box temperature (°C),relative humidity of the measurement (%),span deviation,mass concentration of particles derived from Lorenz-Mie calculation of OPC scattering (μg/m³),mass concentration of particles derived from Lorenz-Mie calculation of OPC scattering (μg/m³),mass concentration of particles derived from Lorenz-Mie calculation of OPC scattering (μg/m³)
DateTimeUTC,F1_M11,P_M11,Q1_M11,Q2_M11,T1_M11,T2_M11,T3_M11,T4_M11,T5_M11,U1_M11,ZSPAN_M11,X2_M11,X0_M11,X1_M11
2023-07-12 06:00:00,SystemResetWarning,0830.1,5.00,000.00,029.0,026.3,000.0,037.5,030.4,18.4,0000.0,0004.83,0011.08,0003.79
2023-07-12 06:01:00,SystemResetWarning,0830.1,5.00,000.00,029.0,026.7,000.0,037.5,030.5,18.1,0000.0,0004.85,0011.46,0003.79
2023-07-12 06:02:00,SystemResetWarning,0830.1,5.00,000.00,029.0,027.0,000.0,037.5,030.6,18.0,0000.0,0004.83,0011.71,0003.80
2023-07-12 06:03:00,SystemResetWarning,0830.1,5.00,000.00,029.1,027.3,000.0,037.5,030.7,18.0,0000.0,0004.84,0011.89,0003.80
2023-07-12 06:04:00,SystemResetWarning,0830.1,4.99,000.00,029.1,027.5,000.0,037.5,030.7,17.9,0000.0,0004.85,0012.10,0003.81
2023-07-12 06:05:00,SystemResetWarning,0830.1,5.00,000.00,029.1,027.7,000.0,037.6,030.8,17.9,0000.0,0004.87,0012.06,0003.81
2023-07-12 06:06:00,SystemResetWarning,0830.1,5.00,000.00,029.2,027.9,000.0,037.6,030.8,17.7,0000.0,0004.81,0011.91,0003.79
2023-07-12 06:07:00,SystemResetWarning,0830.1,4.99,000.00,029.2,028.0,000.0,037.6,030.9,17.7,0000.0,0004.78,0011.82,0003.78
2023-07-12 06:08:00,SystemResetWarning,0830.1,5.00,000.00,029.3,028.0,000.0,037.6,030.9,17.5,0000.0,0004.82,0012.09,0003.78
2023-07-12 06:09:00,SystemResetWarning,0830.1,5.00,000.00,029.3,026.4,000.0,037.5,030.8,17.5,0000.0,0004.80,0012.29,0003.77
2023-07-12 06:10:00,SystemResetWarning,0830.0,5.00,000.00,029.2,025.3,000.0,037.4,030.5,17.6,0000.0,0004.80,0012.86,0003.77
2023-07-12 06:11:00,SystemResetWarning,0830.0,5.02,000.00,029.1,025.3,000.0,037.4,030.4,17.7,0000.0,0004.81,0012.79,0003.78
2023-07-12 06:12:00,SystemResetWarning,0830.1,4.99,000.00,029.0,025.7,000.0,037.4,030.3,17.8,0000.0,0004.82,0012.20,0003.78
2023-07-12 06:13:00,SystemResetWarning,0830.0,5.00,000.00,029.0,026.1,000.0,037.5,030.4,17.9,0000.0,0004.86,0011.45,0003.78
2023-07-12 06:14:00,SystemResetWarning,0830.1,5.01,000.00,029.0,026.5,000.0,037.5,030.5,18.3,0000.0,0004.84,0011.50,0003.77
2023-07-12 06:15:00,SystemResetWarning,0830.1,5.00,000.00,029.0,026.8,000.0,037.5,030.6,18.0,0000.0,0004.82,0011.26,0003.74
2023-07-12 06:16:00,SystemResetWarning,0830.1,4.99,000.00,029.0,027.1,000.0,037.5,030.6,18.0,0000.0,0004.78,0011.15,0003.72
2023-07-12 06:17:00,SystemResetWarning,0830.1,4.99,000.00,029.1,027.3,000.0,037.5,030.7,17.9,0000.0,0004.75,0011.24,0003.72
2023-07-12 06:18:00,SystemResetWarning,0830.1,5.00,000.00,029.1,027.5,000.0,037.5,030.7,17.8,0000.0,0004.73,0011.24,0003.71
2023-07-12 06:19:00,SystemResetWarning,0830.1,5.01,000.00,029.1,027.7,000.0,037.5,030.8,17.9,0000.0,0004.75,0011.09,0003.71
2023-07-12 06:20:00,SystemResetWarning,0830.1,5.00,000.00,029.2,027.9,000.0,037.6,030.8,17.7,0000.0,0004.71,0010.78,0003.71
2023-07-12 06:21:00,SystemResetWarning,0830.1,5.00,000.00,029.2,028.0,000.0,037.6,030.9,17.3,0000.0,0004.67,0010.30,0003.71
2023-07-12 06:22:00,SystemResetWarning,0830.1,4.99,000.00,029.2,028.1,000.0,037.6,030.9,17.6,0000.0,0004.63,0010.77,0003.71
2023-07-12 06:23:00,SystemResetWarning,0830.1,4.99,000.00,029.3,028.2,000.0,037.6,031.0,17.5,0000.0,0004.60,0010.87,0003.71
2023-07-12 06:24:00,SystemResetWarning,0830.1,5.00,000.00,029.3,028.2,000.0,037.7,031.0,17.4,0000.0,0004.59,0010.78,0003.71
2023-07-12 06:25:00,SystemResetWarning,0830.1,5.00,000.00,029.3,026.6,000.0,037.6,030.8,17.1,0000.0,0004.62,0010.61,0003.71
2023-07-12 06:26:00,SystemResetWarning,0830.1,5.01,000.00,029.2,025.3,000.0,037.5,030.6,17.4,0000.0,0004.61,0012.21,0003.72
2023-07-12 06:27:00,SystemResetWarning,0830.0,5.01,000.00,029.1,025.4,000.0,037.4,030.4,17.4,0000.0,0004.62,0013.30,0003.72
2023-07-12 06:28:00,SystemResetWarning,0830.1,5.01,000.00,029.1,025.7,000.0,037.5,030.4,17.3,0000.0,0004.67,0013.74,0003.72
2023-07-12 06:29:00,SystemResetWarning,0830.0,4.99,000.00,029.0,026.1,000.0,037.5,030.4,17.2,0000.0,0004.68,0013.82,0003.73
2023-07-12 06:30:00,SystemResetWarning,0830.0,5.00,000.00,029.0,026.5,000.0,037.5,030.5,17.1,0000.0,0004.64,0014.25,0003.72
2023-07-12 06:31:00,SystemResetWarning,0830.0,5.00,000.00,029.0,026.8,000.0,037.5,030.6,17.1,0000.0,0004.61,0015.34,0003.72
2023-07-12 06:32:00,SystemResetWarning,0830.0,5.00,000.00,029.1,027.1,000.0,037.5,030.6,17.0,0000.0,0004.62,0016.62,0003.72
2023-07-12 06:33:00,SystemResetWarning,0830.0,5.01,000.00,029.1,027.3,000.0,037.5,030.7,17.1,0000.0,0004.59,0016.07,0003.71
2023-07-12 06:34:00,SystemResetWarning,0830.0,4.99,000.00,029.1,027.5,000.0,037.6,030.8,17.0,0000.0,0004.58,0016.59,0003.71
2023-07-12 06:35:00,SystemResetWarning,0830.0,5.00,000.00,029.2,027.7,000.0,037.6,030.8,16.9,0000.0,0004.57,0016.52,0003.70
2023-07-12 06:36:00,SystemResetWarning,0830.0,5.01,000.00,029.2,027.9,000.0,037.6,030.9,17.2,0000.0,0004.54,0016.37,0003.70
2023-07-12 06:37:00,SystemResetWarning,0830.0,5.00,000.00,029.2,028.0,000.0,037.6,030.9,17.3,0000.0,0004.51,0015.32,0003.69
2023-07-12 06:38:00,SystemResetWarning,0830.0,4.99,000.00,029.3,028.1,000.0,037.7,031.0,17.7,0000.0,0004.53,0014.46,0003.69
2023-07-12 06:39:00,SystemResetWarning,0830.0,5.00,000.00,029.3,028.2,000.0,037.7,031.0,17.9,0000.0,0004.52,0014.86,0003.70
2023-07-12 06:40:00,SystemResetWarning,0830.0,4.99,000.00,029.3,027.5,000.0,037.6,030.9,18.0,0000.0,0004.51,0014.59,0003.70
2023-07-12 06:41:00,SystemResetWarning,0830.0,5.01,000.00,029.3,025.6,000.0,037.5,030.7,16.9,0000.0,0004.52,0014.00,0003.71
2023-07-12 06:42:00,SystemResetWarning,0830.0,5.01,000.00,029.2,025.2,000.0,037.4,030.5,18.1,0000.0,0004.51,0012.68,0003.71
2023-07-12 06:43:00,SystemResetWarning,0830.0,5.00,000.00,029.1,025.4,000.0,037.5,030.4,18.9,0000.0,0004.50,0011.69,0003.70
2023-07-12 06:44:00,SystemResetWarning,0830.0,5.00,000.00,029.0,025.8,000.0,037.5,030.4,18.9,0000.0,0004.52,0012.65,0003.70
2023-07-12 06:45:00,SystemResetWarning,0830.0,4.99,000.00,029.0,026.2,000.0,037.5,030.5,18.5,0000.0,0004.48,0012.26,0003.70
2023-07-12 06:46:00,SystemResetWarning,0830.0,5.00,000.00,029.0,026.6,000.0,037.5,030.5,17.3,0000.0,0004.45,0012.20,0003.69
2023-07-12 06:47:00,SystemResetWarning,0830.0,5.01,000.00,029.1,026.9,000.0,037.6,030.6,17.5,0000.0,0004.43,0012.08,0003.69
2023-07-12 06:48:00,SystemResetWarning,0830.0,5.01,000.00,029.1,027.2,000.0,037.6,030.7,18.0,0000.0,0004.47,0012.08,0003.70
2023-07-12 06:49:00,SystemResetWarning,0830.0,4.99,000.00,029.1,027.4,000.0,037.6,030.7,17.8,0000.0,0004.49,0011.29,0003.71
2023-07-12 06:50:00,SystemResetWarning,0830.0,4.99,000.00,029.1,027.6,000.0,037.6,030.8,17.6,0000.0,0004.56,0010.72,0003.72
2023-07-12 06:51:00,SystemResetWarning,0830.0,5.02,000.00,029.2,027.8,000.0,037.6,030.8,17.7,0000.0,0004.57,0011.18,0003.72
2023-07-12 06:52:00,SystemResetWarning,0830.0,4.99,000.00,029.2,027.9,000.0,037.6,030.9,17.6,0000.0,0004.57,0011.62,0003.71
2023-07-12 06:53:00,SystemResetWarning,0830.0,5.00,000.00,029.3,028.0,000.0,037.7,030.9,17.8,0000.0,0004.60,0011.97,0003.71
2023-07-12 06:54:00,SystemResetWarning,0830.0,5.01,000.00,029.3,028.1,000.0,037.7,031.0,17.1,0000.0,0004.61,0011.82,0003.72
2023-07-12 06:55:00,SystemResetWarning,0830.0,5.01,000.00,029.3,028.2,000.0,037.7,031.0,16.7,0000.0,0004.59,0011.11,0003.73
2023-07-12 06:56:00,SystemResetWarning,0830.0,4.99,000.00,029.3,028.3,000.0,037.7,031.1,16.6,0000.0,0004.59,0010.45,0003.74
2023-07-12 06:57:00,SystemResetWarning,0830.1,4.99,000.00,029.4,028.3,000.0,037.7,031.1,16.3,0000.0,0004.61,0010.92,0003.75
2023-07-12 06:58:00,SystemResetWarning,0830.0,5.00,000.00,029.4,026.8,000.0,037.6,030.9,16.0,0000.0,0004.61,0011.07,0003.75
2023-07-12 06:59:00,SystemResetWarning,0830.0,5.00,000.00,029.3,025.5,000.0,037.5,030.7,16.3,0000.0,0004.57,0011.15,0003.75
